Temperature
6 6 6 6 7 7 7 7 7 7 7 7 7 7 7 7 7 7 7 7 7 7 6 6 6 6 5 5 5 5 4 4 4 4 4 4 3 3 3 3 3 3 3
5 5 6 6 6 6 6 6 7 7 7 7 7 7 7 7 7 7 6 6 6 6 6 6 5 5 5 5 5 4 4 4 4 4 3 3 3 3 3 3 3 3 3
5 5 5 5 6 6 6 6 6 6 6 6 6 6 6 6 6 6 6 6 6 6 6 5 5 5 5 5 4 4 4 4 4 3 3 3 3 2 2 2 2 2 2
4 4 5 5 5 5 5 5 6 6 6 6 6 6 6 6 6 6 6 6 5 5 5 5 5 5 5 4 4 4 4 3 3 3 2 2 2 2 2 1 1 2 2
4 4 4 4 4 4 4 5 5 5 5 5 5 5 5 5 5 5 5 5 5 5 5 5 4 4 4 4 4 3 3 3 3 2 2 2 2 1 1 1 1 1 1
3 3 3 3 4 4 4 4 4 4 4 4 5 5 5 5 5 5 5 5 5 4 4 4 4 4 4 3 3 3 3 3 2 2 2 1 1 1 1 1 1 0 0
2 3 3 3 3 3 3 4 4 4 4 4 4 4 4 5 5 4 4 4 4 4 4 4 4 3 3 3 3 3 3 3 2 2 2 1 1 1 1 1 0 0 -0
2 2 2 2 2 3 3 3 3 3 3 4 4 4 4 4 4 4 4 4 4 4 4 3 3 3 3 3 3 2 2 2 2 1 1 1 1 1 1 0 0 0 0
2 2 2 2 2 2 2 3 3 3 3 3 3 3 3 3 3 3 3 3 3 3 3 3 3 3 2 2 2 2 2 1 1 1 1 1 1 1 1 0 -0 -0 -0
1 1 2 2 2 2 2 2 2 2 2 3 3 3 3 3 3 3 3 3 3 3 3 3 2 2 2 2 2 1 1 1 1 1 1 1 1 1 0 0 -0 -1 -1
1 1 1 1 2 2 2 2 2 2 2 2 2 2 2 2 2 2 2 2 2 2 2 2 2 2 2 2 1 1 1 1 0 0 0 0 0 0 0 -0 -0 -1 -1
0 1 1 1 1 1 1 1 1 1 1 1 1 2 2 2 2 2 2 2 2 2 2 2 2 2 1 1 1 1 1 0 0 -0 -0 -0 -0 -0 -0 -0 -0 -1 -1
-0 0 0 0 1 1 1 1 1 1 1 1 1 1 1 2 2 2 2 1 1 1 1 1 1 1 1 1 1 1 0 -0 -0 -1 -1 -1 -1 -1 -1 -1 -1 -1 -1
-1 -0 -0 -0 -0 0 0 0 0 0 1 0 1 1 1 1 1 1 1 1 1 1 1 1 1 1 0 0 0 0 -0 -0 -1 -1 -1 -1 -1 -1 -1 -1 -1 -1 -1
-1 -1 -1 -1 -1 -0 -0 -0 -0 0 0 0 0 0 0 0 1 0 0 0 1 0 0 0 0 0 -0 -0 -0 -0 -1 -1 -1 -1 -1 -1 -1 -1 -1 -1 -1 -1 -1
-2 -2 -1 -1 -1 -1 -1 -1 -1 -1 -0 -0 -0 -1 -0 -0 -0 -0 0 0 0 0 -0 -0 -0 -0 -1 -1 -1 -1 -1 -1 -1 -1 -1 -1 -1 -1 -1 -1 -1 -1 -1
-2 -2 -2 -2 -2 -2 -1 -1 -1 -1 -1 -1 -1 -1 -1 -1 -1 -1 -0 -0 -0 -0 -1 -1 -1 -1 -1 -1 -1 -1 -1 -1 -2 -2 -2 -2 -2 -2 -2 -2 -1 -2 -1
-3 -2 -2 -2 -2 -2 -2 -2 -2 -2 -1 -1 -1 -1 -1 -1 -1 -1 -1 -1 -1 -1 -1 -1 -1 -1 -1 -1 -1 -2 -2 -2 -2 -2 -2 -2 -2 -2 -2 -2 -2 -2 -2
-3 -3 -3 -3 -3 -3 -2 -2 -2 -2 -2 -2 -2 -2 -2 -2 -2 -2 -2 -1 -1 -1 -1 -1 -1 -1 -1 -2 -2 -2 -2 -2 -2 -2 -2 -2 -2 -2 -2 -2 -2 -2 -2
-3 -3 -3 -3 -3 -3 -3 -3 -3 -3 -3 -3 -2 -2 -2 -2 -2 -2 -2 -2 -2 -2 -2 -2 -2 -2 -2 -2 -2 -2 -2 -2 -2 -2 -2 -2 -2 -2 -2 -2 -2 -2 -2
-4 -4 -4 -4 -4 -4 -4 -4 -3 -3 -3 -3 -3 -3 -3 -3 -2 -2 -2 -2 -2 -2 -2 -2 -2 -2 -2 -2 -2 -2 -2 -2 -2 -2 -2 -2 -2 -2 -2 -2 -2 -2 -2
-4 -4 -4 -4 -4 -4 -4 -4 -4 -4 -4 -3 -3 -3 -3 -3 -3 -3 -3 -3 -3 -3 -2 -2 -2 -2 -2 -2 -2 -2 -2 -2 -2 -2 -2 -2 -2 -2 -2 -2 -2 -2 -2
-5 -5 -5 -5 -5 -5 -5 -5 -4 -4 -4 -4 -4 -4 -3 -3 -3 -3 -3 -3 -3 -3 -3 -3 -3 -2 -2 -2 -2 -2 -3 -2 -2 -2 -2 -2 -3 -3 -2 -2 -2 -2 -2
-6 -6 -6 -6 -5 -5 -5 -5 -5 -5 -5 -4 -4 -4 -4 -4 -4 -4 -3 -3 -3 -3 -3 -3 -3 -3 -3 -3 -3 -3 -3 -3 -2 -2 -2 -3 -3 -3 -3 -3 -3 -3 -3
-6 -6 -6 -6 -6 -6 -5 -5 -5 -5 -5 -5 -5 -5 -4 -4 -4 -4 -4 -4 -3 -3 -3 -3 -3 -3 -3 -3 -3 -3 -3 -3 -3 -3 -3 -3 -3 -3 -3 -3 -3 -3 -3
-7 -7 -7 -6 -6 -6 -6 -6 -6 -6 -6 -5 -5 -5 -5 -5 -4 -4 -4 -4 -4 -4 -3 -3 -3 -3 -3 -3 -3 -3 -3 -3 -3 -3 -3 -3 -3 -3 -3 -3 -3 -3 -3
Wind_Speed
2 3 3 3 3 4 4 5 5 5 5 6 5 5 6 7 7 6 6 6 6 5 5 5 4 3 3 2 2 2 3 3 5 5 5 5 7 7 8 8 9 9 9
2 2 2 2 3 3 4 4 5 5 5 5 5 5 6 6 6 6 6 7 7 6 6 5 5 4 4 3 2 3 3 3 4 5 5 5 6 7 7 8 7 8 8
1 1 2 2 2 3 3 3 4 4 5 5 5 5 5 5 6 6 6 6 6 6 6 6 5 5 4 3 3 3 2 3 3 4 5 5 5 6 7 7 7 7 8
1 1 1 2 2 2 2 3 3 4 4 4 4 4 5 5 6 6 5 6 6 5 5 5 5 5 5 4 3 3 3 3 3 3 4 5 5 6 6 6 6 7 7
1 1 1 1 1 1 1 2 3 3 4 4 4 4 4 4 5 5 5 6 6 5 5 4 4 4 4 4 4 3 3 3 3 3 4 5 5 5 5 6 7 7 7
1 1 0 0 1 1 1 2 2 3 3 4 4 4 4 3 4 5 5 5 5 5 5 4 4 4 4 5 5 4 4 4 4 4 4 5 6 6 6 6 7 7 6
1 0 0 0 1 1 1 2 3 3 3 3 3 3 3 3 4 5 5 4 5 5 5 4 3 3 4 3 3 2 3 4 5 5 6 6 6 6 6 7 7 7 7
0 0 0 0 1 1 2 2 2 2 3 3 3 3 3 3 4 5 4 4 4 4 4 5 4 4 4 3 3 3 3 3 4 4 5 6 6 6 6 6 7 7 7
1 1 1 1 1 1 2 2 2 2 3 3 3 3 3 3 4 4 4 3 3 3 3 4 4 4 4 3 3 3 3 3 3 5 6 6 7 8 7 5 5 5 6
2 2 2 1 1 2 2 2 1 2 2 2 2 3 3 3 3 4 4 3 3 2 2 3 4 4 4 4 4 3 3 3 3 3 4 4 4 5 6 5 5 5 5
2 2 2 1 1 1 1 1 1 1 2 2 2 2 2 2 3 4 4 3 3 3 2 2 2 4 4 4 4 3 3 3 3 3 3 3 4 4 4 4 4 4 5
2 2 2 2 1 0 0 0 1 1 2 2 2 1 1 1 2 3 5 4 3 3 3 2 2 3 3 3 2 1 1 2 1 2 2 3 4 4 4 5 5 5 5
3 2 2 2 1 0 0 1 1 1 1 2 2 1 1 0 1 2 4 5 4 2 2 2 2 3 2 2 1 1 1 1 1 2 2 3 4 4 4 4 5 4 5
2 2 2 1 1 1 0 0 1 1 1 1 2 2 1 1 1 1 2 2 3 2 1 2 3 2 1 1 1 1 1 1 2 2 2 3 3 4 4 4 4 4 4
2 2 2 2 1 1 1 1 1 1 2 2 2 2 2 2 2 1 2 2 2 2 2 2 2 2 1 0 0 1 1 1 2 2 2 2 3 3 4 4 3 4 4
2 2 2 1 1 1 1 1 2 1 1 2 2 2 2 2 2 2 2 2 2 4 3 3 2 2 2 1 1 1 2 2 2 2 2 2 3 3 3 4 3 3 4
1 2 2 1 1 1 0 0 1 2 2 1 1 1 1 1 1 2 2 3 4 5 3 3 2 2 2 2 2 2 2 2 2 2 2 2 3 3 3 3 3 4 4
2 2 1 1 1 1 1 1 1 1 1 1 2 2 1 1 1 2 3 3 3 3 2 3 3 2 2 2 2 2 2 2 2 2 2 2 2 2 3 3 3 4 4
2 1 1 1 1 1 1 1 1 1 1 1 1 1 1 1 1 2 3 2 3 2 2 2 2 2 2 2 2 2 2 2 2 2 2 2 2 2 2 3 3 4 4
1 2 2 1 1 1 1 1 1 1 1 1 1 1 1 1 0 1 0 1 2 2 2 2 2 2 2 2 2 2 2 2 2 2 2 2 2 2 2 3 3 3 3
1 1 2 1 1 1 1 1 1 1 1 1 1 1 1 1 1 1 1 1 1 2 2 2 2 2 2 2 2 2 2 2 2 2 2 2 2 2 2 2 2 3 3
1 1 1 1 1 1 1 1 1 1 1 1 1 1 1 1 1 1 1 1 1 1 2 2 2 2 2 2 3 3 3 3 2 2 2 2 2 2 2 2 2 2 3
1 1 1 1 1 1 1 1 1 1 1 1 1 1 1 1 1 1 1 1 1 1 1 2 2 2 2 2 3 3 3 3 3 2 2 1 2 2 2 2 2 2 2
1 1 1 1 1 1 1 1 1 1 1 1 1 1 1 1 1 1 1 1 1 1 1 2 2 3 3 3 3 3 4 3 2 2 2 2 2 2 2 2 2 2 2
1 1 1 1 1 1 1 2 1 1 1 1 1 1 1 1 1 1 1 1 1 1 1 2 2 2 3 3 3 3 3 3 2 2 2 2 2 2 2 2 1 1 1
1 1 1 1 2 2 2 2 2 2 1 1 1 1 1 1 1 1 1 1 1 1 2 2 2 2 3 3 4 4 3 2 2 2 2 2 2 1 1 1 1 1 1
Wind_Direction
220 220 222 220 215 207 201 199 195 189 185 186 185 187 188 187 185 183 184 182 185 185 186 191 196 198 200 207 216 225 239 246 261 286 295 298 303 308 314 315 316 321 324
233 222 218 211 202 201 201 197 190 186 186 186 184 188 192 190 187 186 186 188 188 189 191 193 196 196 205 207 216 233 248 259 262 276 292 298 299 306 309 312 318 319 320
229 219 209 200 197 197 197 189 184 182 180 178 182 190 193 191 189 190 191 192 194 196 195 196 197 197 206 212 223 237 254 265 263 265 284 296 298 304 309 310 314 315 319
220 212 211 209 213 201 190 183 182 181 179 180 184 193 196 193 193 191 194 196 198 200 200 200 202 204 209 213 224 233 246 258 262 267 280 293 299 304 306 310 313 318 318
241 229 233 219 224 199 177 176 177 181 182 182 187 195 196 196 195 192 196 199 199 199 201 205 209 206 213 223 228 231 238 247 258 268 278 291 296 304 308 310 308 313 311
271 283 274 194 205 197 177 168 166 174 179 180 188 193 197 198 184 191 200 201 200 201 203 203 198 196 205 225 235 247 253 253 256 263 274 277 288 295 304 306 308 310 309
265 266 162 203 223 220 185 168 172 172 172 179 185 190 198 193 182 194 200 204 201 203 202 199 197 198 206 211 223 245 271 281 273 266 265 275 285 290 296 299 300 301 302
289 313 27 243 246 230 199 192 183 175 175 177 187 197 200 194 181 188 190 203 205 208 208 203 197 199 204 210 227 247 270 283 284 281 276 282 290 293 289 287 290 295 296
313 305 299 270 246 235 216 218 203 185 181 179 184 194 200 198 183 183 185 200 203 211 211 207 201 204 199 205 220 237 265 291 312 306 303 300 301 300 299 294 294 296 302
311 297 294 279 248 236 230 224 226 198 188 179 182 195 203 205 187 185 189 193 202 207 208 206 204 208 199 208 222 227 245 276 295 309 313 312 309 307 305 293 287 288 298
326 315 311 300 277 253 242 225 203 180 173 179 184 194 201 200 187 193 198 200 204 202 208 213 210 200 206 220 239 240 257 280 280 291 301 308 313 315 315 316 303 287 286
336 336 334 330 326 292 239 230 176 163 169 179 183 186 201 189 197 204 207 205 203 204 213 213 207 198 214 223 234 249 266 290 278 283 295 305 311 315 315 317 312 305 294
349 350 344 341 342 334 208 204 181 168 178 194 195 199 213 233 215 211 209 201 196 204 205 192 192 193 204 203 206 199 225 263 269 279 292 303 308 306 310 313 315 318 315
346 347 347 345 348 356 318 231 212 208 203 211 219 217 224 231 226 207 205 192 182 175 161 156 156 160 171 183 197 194 255 268 273 274 288 298 305 307 310 314 315 321 321
346 345 344 345 342 354 356 329 255 249 249 242 238 227 221 228 240 254 220 208 203 187 164 156 154 161 171 186 262 295 300 293 299 300 294 297 303 307 313 317 316 320 316
341 339 337 339 341 343 0 13 19 334 318 298 283 259 251 256 236 228 216 205 187 165 161 171 181 193 203 215 238 280 294 287 291 290 290 294 298 304 311 318 320 318 316
322 319 322 327 314 297 302 316 6 21 32 19 352 322 270 219 212 204 193 176 166 160 168 183 197 207 213 226 243 262 280 287 289 283 285 293 300 304 310 319 323 321 321
326 323 323 319 306 282 262 266 263 262 330 344 343 350 333 222 157 162 168 157 165 171 189 196 205 209 215 225 241 259 276 285 286 290 292 295 300 304 311 316 317 317 318
324 323 332 330 311 296 279 270 266 263 274 306 329 340 345 302 157 137 153 170 180 192 201 209 215 214 220 228 237 250 260 270 277 285 287 290 298 302 308 314 314 315 315
334 341 339 327 310 301 291 275 272 275 282 289 300 314 324 329 164 168 197 188 190 198 206 217 223 225 225 228 236 243 255 266 276 283 284 290 297 299 301 304 309 311 316
326 341 346 335 317 294 277 273 276 275 277 286 298 304 306 261 219 217 228 226 212 209 213 222 225 225 230 232 234 239 248 257 265 274 286 290 296 300 303 301 305 310 317
309 321 333 329 322 315 298 282 276 271 268 284 305 321 341 341 250 231 231 236 237 228 229 230 230 232 233 231 234 236 243 252 260 266 279 288 291 293 297 301 309 312 316
297 304 315 317 313 311 309 303 297 289 289 299 311 322 328 318 297 271 263 269 262 251 250 242 238 244 248 244 242 242 240 244 245 245 256 268 278 277 278 281 290 305 317
283 278 281 291 298 299 295 292 295 295 292 294 304 311 316 310 301 297 292 289 303 285 263 256 253 245 253 259 255 256 258 259 247 223 231 241 256 266 264 264 275 297 307
277 275 279 279 279 280 284 287 289 289 285 287 295 304 308 304 303 307 315 314 310 299 287 279 268 257 261 268 272 273 274 272 261 233 217 228 246 255 255 257 260 289 308
277 272 276 277 273 271 273 276 275 275 271 276 288 289 285 284 292 303 311 304 298 298 294 282 272 272 273 270 274 276 271 259 252 246 215 218 240 248 251 244 247 246 296
Height
1465 1467 1468 1469 1470 1472 1473 1475 1476 1478 1479 1481 1483 1484 1486 1488 1489 1490 1491 1493 1494 1495 1496 1497 1498 1499 1499 1499 1499 1499 1499 1499 1496 1494 1493 1492 1490 1488 1485 1483 1481 1477 1474
1463 1464 1465 1467 1468 1469 1470 1472 1473 1475 1477 1478 1480 1482 1483 1484 1486 1487 1488 1489 1491 1492 1493 1494 1495 1496 1496 1496 1496 1496 1496 1495 1494 1491 1489 1488 1486 1484 1482 1480 1477 1474 1471
1461 1462 1463 1464 1465 1466 1468 1469 1471 1472 1474 1475 1477 1479 1480 1481 1482 1484 1485 1487 1488 1489 1490 1491 1492 1492 1493 1493 1493 1493 1493 1492 1491 1488 1486 1485 1483 1481 1479 1476 1474 1471 1468
1460 1460 1461 1462 1463 1464 1465 1467 1468 1470 1471 1472 1474 1476 1477 1478 1479 1481 1482 1484 1485 1486 1487 1488 1489 1489 1489 1489 1490 1490 1489 1489 1487 1486 1483 1481 1480 1478 1476 1473 1469 1467 1464
1458 1458 1458 1460 1461 1462 1463 1464 1466 1467 1469 1470 1472 1473 1474 1475 1476 1478 1479 1481 1482 1483 1484 1485 1485 1486 1486 1486 1487 1486 1486 1485 1484 1482 1480 1478 1477 1475 1473 1470 1467 1463 1461
1455 1456 1457 1458 1458 1459 1461 1462 1463 1465 1466 1468 1469 1470 1471 1472 1474 1475 1477 1478 1479 1480 1481 1481 1482 1483 1483 1483 1484 1483 1483 1482 1480 1479 1477 1475 1473 1472 1470 1467 1464 1461 1457
1454 1454 1455 1456 1457 1458 1458 1459 1461 1462 1464 1465 1466 1467 1468 1470 1471 1472 1474 1475 1476 1477 1478 1478 1479 1479 1480 1480 1480 1480 1479 1479 1478 1476 1474 1472 1471 1469 1466 1464 1461 1459 1455
1453 1453 1454 1454 1455 1456 1457 1458 1459 1460 1461 1462 1463 1465 1466 1467 1468 1470 1471 1472 1473 1474 1475 1475 1476 1476 1477 1477 1476 1476 1475 1475 1474 1473 1471 1469 1468 1466 1463 1461 1459 1455 1452
1452 1452 1453 1453 1453 1454 1455 1456 1457 1458 1459 1460 1461 1462 1463 1465 1466 1467 1468 1469 1470 1471 1472 1472 1473 1473 1474 1474 1473 1472 1471 1471 1470 1469 1468 1466 1464 1463 1461 1458 1455 1453 1449
1451 1451 1451 1452 1452 1453 1453 1454 1454 1455 1456 1457 1459 1460 1461 1462 1463 1464 1465 1466 1466 1467 1468 1469 1470 1470 1470 1470 1470 1469 1468 1467 1466 1465 1464 1463 1461 1459 1458 1456 1453 1450 1447
1449 1450 1450 1450 1451 1452 1452 1452 1453 1453 1454 1455 1456 1458 1459 1459 1460 1462 1462 1463 1464 1465 1465 1466 1467 1467 1467 1467 1467 1466 1466 1465 1463 1462 1460 1459 1458 1456 1454 1453 1450 1448 1445
1448 1448 1448 1449 1449 1450 1450 1451 1451 1452 1452 1453 1454 1455 1456 1457 1458 1459 1460 1460 1461 1462 1463 1463 1464 1464 1464 1464 1464 1463 1463 1462 1460 1459 1458 1456 1455 1453 1451 1449 1447 1445 1443
1447 1447 1447 1447 1448 1448 1448 1449 1449 1450 1450 1451 1452 1453 1453 1454 1455 1456 1457 1458 1459 1459 1460 1460 1461 1461 1462 1461 1461 1460 1460 1459 1458 1456 1455 1454 1452 1451 1449 1447 1444 1442 1440
1446 1446 1446 1446 1446 1446 1447 1447 1447 1448 1448 1449 1450 1450 1451 1452 1453 1453 1454 1455 1456 1456 1457 1457 1458 1459 1459 1459 1458 1457 1457 1456 1455 1454 1453 1452 1450 1448 1446 1444 1442 1440 1438
1445 1445 1445 1445 1445 1445 1445 1445 1446 1446 1446 1447 1448 1448 1449 1449 1450 1451 1451 1452 1453 1453 1454 1454 1455 1455 1455 1455 1455 1455 1454 1454 1453 1452 1451 1449 1448 1446 1444 1443 1440 1438 1436
1444 1444 1444 1444 1444 1444 1443 1443 1444 1444 1445 1445 1446 1446 1446 1447 1448 1449 1449 1450 1450 1451 1451 1451 1452 1452 1453 1452 1452 1452 1452 1451 1450 1449 1448 1447 1446 1444 1442 1441 1439 1437 1434
1443 1443 1443 1442 1442 1442 1442 1442 1441 1442 1443 1443 1443 1443 1444 1445 1445 1446 1447 1447 1448 1448 1449 1449 1449 1450 1450 1450 1450 1450 1450 1449 1448 1447 1446 1445 1444 1443 1441 1439 1437 1435 1433
1442 1442 1441 1441 1441 1441 1441 1441 1441 1440 1440 1440 1441 1441 1442 1442 1443 1444 1444 1445 1445 1446 1446 1446 1447 1448 1448 1448 1448 1448 1447 1447 1446 1445 1444 1443 1442 1441 1439 1438 1436 1434 1432
1440 1440 1440 1440 1440 1439 1439 1439 1439 1439 1439 1439 1439 1439 1440 1440 1441 1442 1442 1442 1442 1443 1444 1444 1445 1446 1446 1446 1446 1446 1445 1445 1444 1443 1442 1442 1441 1440 1438 1436 1435 1433 1431
1439 1438 1438 1438 1438 1438 1438 1438 1438 1438 1438 1438 1437 1438 1438 1438 1439 1439 1439 1440 1440 1441 1442 1442 1443 1444 1444 1444 1444 1443 1443 1443 1442 1441 1441 1440 1439 1438 1437 1435 1434 1432 1430
1437 1437 1437 1437 1436 1436 1436 1436 1436 1436 1436 1436 1436 1436 1437 1437 1437 1437 1438 1438 1439 1439 1440 1441 1441 1441 1442 1442 1441 1441 1441 1441 1440 1440 1439 1438 1438 1437 1436 1434 1433 1431 1430
1436 1435 1435 1435 1435 1435 1435 1435 1435 1435 1435 1435 1435 1435 1435 1435 1435 1436 1436 1437 1437 1438 1439 1439 1439 1440 1440 1440 1439 1439 1439 1438 1438 1438 1437 1437 1436 1435 1434 1433 1432 1430 1429
1434 1434 1434 1433 1433 1433 1433 1433 1433 1433 1433 1433 1433 1433 1433 1434 1434 1434 1435 1435 1436 1436 1437 1437 1438 1438 1438 1438 1438 1437 1437 1437 1436 1436 1436 1435 1434 1434 1433 1432 1431 1430 1428
1433 1432 1432 1432 1431 1431 1431 1431 1431 1431 1431 1431 1431 1431 1432 1432 1432 1432 1433 1433 1434 1434 1435 1436 1436 1436 1436 1435 1435 1435 1435 1435 1435 1434 1434 1433 1433 1432 1432 1431 1430 1429 1428
1431 1431 1430 1430 1429 1429 1429 1429 1429 1429 1429 1429 1429 1430 1430 1430 1430 1431 1431 1432 1432 1433 1433 1434 1434 1434 1433 1433 1433 1433 1433 1433 1433 1432 1432 1432 1431 1431 1430 1430 1429 1428 1427
1429 1429 1428 1428 1427 1427 1427 1427 1427 1427 1427 1428 1428 1428 1428 1428 1429 1429 1430 1430 1431 1431 1432 1432 1432 1432 1432 1432 1431 1431 1431 1431 1431 1431 1431 1430 1430 1429 1429 1429 1428 1427 1427